QUBE (60476 NORAD) Tracking and Keplerian Element Data

This shows tracking and keplerian element data for the satellite.

Feedback or suggestion? Click here.




ElementValue
Catalog60476
NameQUBE
Epoch Orbit864
Epoch Day286.77233889
Epoch Year2024
RAAN1.4418
Inclination97.4393
Eccentricity0.0002401
Argument of Perigee245.8016
Mean Anonmoly114.2968
Mean Motion15.19758306
Decay Rate0.00021303
L11 60476U 24149J 24286.77233889 .00021303 00000+0 99705-3 0 9993
L22 60476 97.4393 1.4418 0002401 245.8016 114.2968 15.19758306 8645



Live tracking and technical data element details for QUBE (NORAD 60476). QUBE can be tracked NOW for your location showing map with azimuth and elevation plus other details from your city location.







IsCatalogInMostPopularTable: catalog: 60476, numindb: 5
Update: records affected: 1



GetName: 60476 QUBE

Hit Count: updated at: Tue, 03 Dec 2024 02:10:38 GMT